Location: Bakov nad Jizerou
(50.4784°N, 14.9394°E)
Time: 17:16:38
(UTC+00:00)

Cosmos 2322 - Pass Details

Date: 26 October 2021
Orbit: 841 x 854 km, 71.0° (Epoch: 04 December)

Event Time Altitude Azimuth Distance (km) Brightness Sun altitude
Rises 16:36:33 0° 149° (SSE) 3,411 6.6 -8.5°
Reaches altitude 10° 16:40:19 10° 124° (SE) 2,482 5.7 -9.1°
Maximum altitude 16:42:57 14° 96° (E) 2,242 5.3 -9.6°
Enters shadow 16:44:26 12° 80° (E) 2,322 5.3 -9.8°
